STARLINK-4356 (53224 NORAD) Tracking and Keplerian Element Data

This shows tracking and keplerian element data for the satellite.

Feedback or suggestion? Click here.




ElementValue
Catalog53224
NameSTARLINK-4356
Epoch Orbit1023
Epoch Day269.40506612
Epoch Year2022
RAAN329.2402
Inclination97.6531
Eccentricity0.0001046
Argument of Perigee132.944
Mean Anonmoly227.1872
Mean Motion15.0125531
Decay Rate-6.02E-06
L11 53224U 22084AM 22269.40506612 -.00000602 00000+0 -42305-4 0 9994
L22 53224 97.6531 329.2402 0001046 132.9440 227.1872 15.01255310 10233

Live tracking and technical data element details for STARLINK-4356 (NORAD 53224). STARLINK-4356 can be tracked NOW for your location showing map with azimuth and elevation plus other details from your city location.

Track the satellite on the map from your city or location and see movement details for azimuth, elevation, latitude, longitude, range, height, and movement on the map or in text.







IsCatalogInMostPopularTable: catalog: 53224, numindb: 8
Update: records affected: 1



GetName: 53224 STARLINK-4356

Hit Count: updated at: Wed, 28 Sep 2022 23:21:20 GMT